Location: Unnamed Road
(35.9029°N, 51.9749°E)
Time: 22:50:19
(UTC+04:30)

Vanguard 1 - All Passes

Search period start: 06 June 2020 00:00
Search period end: 16 June 2020 00:00
Orbit: 649 x 3834 km, 34.3° (Epoch: 05 June)

Date Brightness Start Highest point End Pass type
(mag) Time Alt. Az. Time Alt. Az. Time Alt. Az.
06 Jun - 02:52:07 10° SSW 03:00:56 32° SE 03:15:05 10° E visible
06 Jun - 05:09:47 10° WSW 05:22:42 71° SSE 05:44:41 10° E visible
06 Jun - 07:31:05 10° W 07:48:49 86° S 08:12:54 10° E daylight
06 Jun - 09:54:47 10° WNW 10:16:24 69° SSW 10:37:58 10° SE daylight
06 Jun - 12:21:41 10° W 12:41:23 36° SW 12:57:37 10° SSE daylight
07 Jun - 03:11:54 10° SSW 03:21:16 41° SE 03:37:18 10° ENE visible
07 Jun - 05:30:32 10° WSW 05:43:55 78° SSE 06:06:29 10° E daylight
07 Jun - 07:52:16 10° W 08:10:29 84° S 08:34:28 10° ESE daylight
07 Jun - 10:16:12 10° WNW 10:37:41 62° SSW 10:58:41 10° SE daylight
07 Jun - 12:44:19 10° W 13:01:54 28° SW 13:16:44 10° S daylight
08 Jun - 01:19:04 10° SE 01:22:33 12° ESE 01:26:43 10° ESE visible
08 Jun - 03:32:00 10° SW 03:41:48 51° SE 03:59:16 10° ENE visible
08 Jun - 05:51:26 10° WSW 06:05:18 83° S 06:28:18 10° E daylight
08 Jun - 08:13:27 10° W 08:32:08 80° SSW 08:55:54 10° ESE daylight
08 Jun - 10:37:44 10° WNW 10:58:49 53° SW 11:19:05 10° SE daylight
08 Jun - 13:07:50 10° W 13:22:21 21° SW 13:34:58 10° S daylight
09 Jun - 01:36:41 10° S 01:42:35 19° SE 01:50:58 10° E visible
09 Jun - 03:52:23 10° SW 04:02:33 61° SSE 04:21:08 10° ENE visible
09 Jun - 06:12:25 10° W 06:26:47 85° S 06:50:07 10° E daylight
09 Jun - 08:34:40 10° W 08:53:41 75° SSW 09:17:10 10° ESE daylight
09 Jun - 10:59:25 10° WNW 11:19:47 45° SW 11:39:09 10° SSE daylight
09 Jun - 13:33:21 10° W 13:42:45 14° SW 13:51:21 10° SSW daylight
10 Jun - 01:55:48 10° S 02:02:44 28° SE 02:13:42 10° E visible
10 Jun - 04:12:57 10° WSW 04:23:29 70° SSE 04:42:57 10° E visible
10 Jun - 06:33:26 10° W 06:48:19 85° S 07:11:52 10° E daylight
10 Jun - 08:55:53 10° W 09:15:08 68° SSW 09:38:12 10° SE daylight
10 Jun - 11:21:25 10° W 11:40:37 37° SW 11:58:48 10° SSE daylight
11 Jun - 02:15:31 10° SSW 02:23:02 37° SE 02:35:53 10° E visible
11 Jun - 04:33:40 10° WSW 04:44:36 77° SSE 05:04:46 10° E visible
11 Jun - 06:54:29 10° W 07:09:52 83° S 07:33:34 10° ESE daylight
11 Jun - 09:17:10 10° WNW 09:36:28 61° SSW 09:58:58 10° SE daylight
11 Jun - 11:43:54 10° W 12:01:20 29° SW 12:17:53 10° S daylight
12 Jun - 02:35:36 10° SW 02:43:30 48° SE 02:57:47 10° ENE visible
12 Jun - 04:54:30 10° WSW 05:05:51 82° S 05:26:37 10° E visible
12 Jun - 07:15:33 10° W 07:31:23 79° SSW 07:55:07 10° ESE daylight
12 Jun - 09:38:35 10° WNW 09:57:40 53° SSW 10:19:24 10° SE daylight
12 Jun - 12:07:15 10° W 12:22:00 22° SW 12:36:05 10° S daylight
13 Jun - 00:40:53 10° SSE 00:44:55 15° SE 00:50:09 10° E visible
13 Jun - 02:55:58 10° SW 03:04:10 58° SSE 03:19:35 10° E visible
13 Jun - 05:15:23 10° W 05:27:11 85° S 05:48:28 10° E visible
13 Jun - 07:36:38 10° W 07:52:51 74° SSW 08:16:28 10° ESE daylight
13 Jun - 10:00:09 10° W 10:18:46 44° SW 10:39:29 10° SSE daylight
13 Jun - 12:32:28 10° WSW 12:42:39 15° SW 12:52:31 10° SSW daylight
14 Jun - 00:59:43 10° S 01:05:04 23° SE 01:13:01 10° E visible
14 Jun - 03:16:30 10° WSW 03:25:02 68° SSE 03:41:20 10° E visible
14 Jun - 05:36:20 10° W 05:48:34 84° S 06:10:18 10° E daylight
14 Jun - 07:57:45 10° W 08:14:16 67° SSW 08:37:34 10° SE daylight
14 Jun - 10:22:02 10° W 10:39:46 36° SW 10:59:07 10° SSE daylight
15 Jun - 01:19:22 10° SSW 01:25:21 32° SE 01:35:08 10° E visible
15 Jun - 03:37:11 10° WSW 03:46:02 76° SSE 04:03:07 10° E visible
15 Jun - 05:57:16 10° W 06:09:58 82° S 06:32:03 10° ESE daylight
15 Jun - 08:18:56 10° W 08:35:35 59° SSW 08:58:23 10° SE daylight
15 Jun - 10:44:24 10° W 11:00:41 28° SW 11:18:08 10° S daylight
